This is the latest recevied weather packets stored in our database for station/object KV9E. If no packets are shown the sender has not sent any weather packets the latest 10 day(s).
| Time | Temp. | Humidity | Pressure | Rain* | Wind** | Luminosity | Snow |
|---|---|---|---|---|---|---|---|
| 1788388610 | 32.22° C | 59% | 1017.7 hPa | 0 mm | - | 120 W/m² | - |
| 1788388310 | 33.33° C | 57% | 1017.9 hPa | 0 mm | - | 135 W/m² | - |
| 1788388003 | 32.78° C | 53% | 1017.9 hPa | 0 mm | - | 143 W/m² | - |
| 1788387702 | 32.22° C | 59% | 1017.8 hPa | 0 mm | - | 147 W/m² | - |
| 1788387397 | 32.22° C | 60% | 1018.1 hPa | 0 mm | - | 152 W/m² | - |
| 1788387092 | 32.78° C | 59% | 1018.1 hPa | 0 mm | - | 175 W/m² | - |
| 1788386787 | 32.78° C | 58% | 1018 hPa | 0 mm | - | 190 W/m² | - |
| 1788386482 | 33.33° C | 54% | 1017.9 hPa | 0 mm | - | 202 W/m² | - |
| 1788386178 | 33.33° C | 54% | 1018.1 hPa | 0 mm | - | 212 W/m² | - |
| 1788385873 | 32.78° C | 60% | 1017.9 hPa | 0 mm | - | 220 W/m² | - |
| 1788385568 | 32.78° C | 57% | 1017.9 hPa | 0 mm | - | 228 W/m² | - |
| 1788385267 | 33.33° C | 55% | 1017.9 hPa | 0 mm | - | 189 W/m² | - |
| 1788384963 | 33.33° C | 56% | 1017.8 hPa | 0 mm | - | 268 W/m² | - |
| 1788384662 | 33.89° C | 51% | 1018 hPa | 0 mm | - | 277 W/m² | - |
| 1788384358 | 33.89° C | 51% | 1017.8 hPa | 0 mm | - | 271 W/m² | - |
| 1788384054 | 33.33° C | 54% | 1018 hPa | 0 mm | - | 292 W/m² | - |
| 1788383749 | 33.89° C | 52% | 1018.1 hPa | 0 mm | - | 299 W/m² | - |
| 1788383444 | 33.89° C | 54% | 1018.2 hPa | 0 mm | - | 334 W/m² | - |
| 1788383144 | 33.89° C | 52% | 1017.9 hPa | 0 mm | - | 347 W/m² | - |
| 1788382838 | 33.89° C | 55% | 1018.1 hPa | 0 mm | - | 366 W/m² | - |
| 1788382537 | 33.89° C | 53% | 1018 hPa | 0 mm | - | 364 W/m² | - |
| 1788382233 | 33.89° C | 53% | 1018 hPa | 0 mm | - | 372 W/m² | - |
| 1788381932 | 33.33° C | 55% | 1018.3 hPa | 0 mm | - | 379 W/m² | - |
| 1788381627 | 33.89° C | 55% | 1018.1 hPa | 0 mm | - | 391 W/m² | - |
| 1788381323 | 33.89° C | 53% | 1018.2 hPa | 0 mm | - | 404 W/m² | - |
* Rain latest hour (hover to see other rain measurements)
** Current wind speed in m/s (hover to see current wind gust speed)